"Pseudo-MPEC" for P10Lp43

Created 2019 Jan 15 11:18:32 UT using Find_Orb

Click here for an explanation of pseudo-MPECs

 
 Astrometry: 
     P10Lp43  C2019 01 11\K?D72xrtxjC\\Z'$@Bw^QBO#xobEAstrometry$bJCa094*lX'NF51
     P10Lp43  C2019 01 11p@)lJ`EsI%r'hC%)95BMs4+Tyorq+#AL`4PG3IJredacted;8BQZF51
     P10Lp43  C2019 01 11_rNDLECvqn't6-[$7\ka,)]]dVn'h9A'2JK8oHhfJ:,1u0IW!d=_F51
     P10Lp43  C2019 01 11ybZZN^+ASS/sIYgVkc@:tvX8[clickYm8jviXVIa:.(G;7tdKbtpF51
     P10Lp43 |C2019 01 13k!8rk.n4A%](sEdu`!I$eSvjH`xm(CM)\EtDm.erEGFj1u*gDcG0807
     P10Lp43 |C2019 01 1313v^p2]EVPSv#SCIw/x(PBkw,aAa%m6mhereiN=U1b2;pbI_AFn?807
     P10Lp43 |C2019 01 13hq/mQW]DebVPJBlt*0Ci,D8K6g.f6v^yjiV'4WmPgCT/5Omr\,pN807
     P10Lp43  C2019 01 15.17102 05 18 29.96 +08 29 53.2    ~1F5I 20.6 GVNEOCPI52
     P10Lp43  C2019 01 15.17568 05 18 30.02 +08 29 57.0    ~1F5I 21.0 GVNEOCPI52
     P10Lp43  C2019 01 15.18224 05 18 30.09 +08 30 01.7    ~1F5I 20.3 GVNEOCPI52
     P10Lp43 HC2019 01 155[C4KgE-!+iw_Rg4Ega[M1d^b)]Ghr)fa.Sfor,;.bo9Qmx]Zg(G691
     P10Lp43 HC2019 01 150p#SB,s)oLi04QM\M%?-F!.N?\BFnx1!ab7DW=4AQeG$N]A[*wC2691
     P10Lp43 HC2019 01 15'F.E-J\,'ytHP9J.;xexplanationF74*4W*7KF?WNe?sMi0YJ/S691

Station data:
(691) Steward Observatory, Kitt Peak - Spacewatch  (N31.962174 W111.600327)
   US/Arizona.  Observer J. V. Scotti. 0.9-m f/3 reflector + CCD.
(807) Cerro Tololo Observatory, La Serena  (S30.169136 W70.805900)  Chile.
   1.5-m Ritchey-Chrétien.
(F51) Pan-STARRS 1, Haleakala  (N20.707235 W156.255910)  US/Hawaii.
   Observers N. Primak, A. Schultz, S. Watters, J. Thiel, T. Goggia. Measurer
   PS1 Science Consortium. 1.8-m Ritchey-Chrétien + CCD.
(I52) Steward Observatory, Mt. Lemmon Station  (N32.442547 W110.788920)
   US/Arizona.  Observers B. M. Africano, E. J. Christensen, G. A. Farneth,
   D. C. Fuls, A. R. Gibbs, A. D. Grauer, H. Groeller, J. A. Johnson, R. A.
   Kowalski, S. M. Larson, G. J. Leonard, R. L. Seaman, F. C. Shelly. 1.0-m
   reflector + CCD.

Orbital elements:  P10Lp43
   Perihelion 2019 Jan 26.113883 +/- 0.837 TT =  2:43:59 (JD 2458509.613883)
Epoch 2019 Jan 15.0 TT = JDT 2458498.5   Earth MOID: 0.4912   Ma: 0.0122
M 357.02424350 +/- 0.18             (J2000 ecliptic)          AutoNEOCP
n   0.26775128 +/- 0.00487          Peri.  314.71445 +/- 0.7
a   2.38404808 +/- 0.0289           Node   154.38249 +/- 0.29
e   0.3857815 +/- 0.00621           Incl.    6.94995 +/- 0.054
P   3.68                   H 20.0   G  0.15   U  9.2  
q 1.46432628 +/- 0.00405    Q 3.30376988 +/- 0.0552
From 13 observations 2019 Jan. 11-15; mean residual 0".11
Residuals in arcseconds: 
190111 F51  .03-  .03-    190113 807  .06+  .02-    190115 691  .12+  .07+    
190111 F51  .01+  .00     190113 807  .04+  .18+    190115 691  .09+  .18+    
190111 F51  .00   .01+    190115 I52  .00   .04-    190115 691  .30-  .15-    
190111 F51  .03+  .02+    190115 I52  .09+  .16+    
190113 807  .12-  .17-    190115 I52  .01+  .21-    

Ephemerides (geocentric):
Date (UTC) HH   RA              Dec         delta   r     elong  mag " sig PA
---- -- -- --  -------------   -----------  ------ ------ -----  --- ---- ---
2019 01 15 11  05 18 34.721   +08 33 41.40  .56065 1.4673 142.2 20.7 .121  60
2019 01 15 12  05 18 35.465   +08 34 13.65  .56077 1.4673 142.2 20.7 .135  62
2019 01 15 13  05 18 36.213   +08 34 45.91  .56088 1.4673 142.1 20.7 .150  63
2019 01 15 14  05 18 36.966   +08 35 18.20  .56100 1.4673 142.1 20.7 .165  65
2019 01 15 15  05 18 37.724   +08 35 50.50  .56111 1.4673 142.1 20.8 .180  66
2019 01 15 16  05 18 38.487   +08 36 22.83  .56123 1.4672 142.0 20.8 .196  67
2019 01 15 17  05 18 39.256   +08 36 55.17  .56135 1.4672 142.0 20.8 .212  67
2019 01 15 18  05 18 40.029   +08 37 27.54  .56146 1.4672 142.0 20.8 .228  68
2019 01 15 19  05 18 40.807   +08 37 59.92  .56158 1.4672 141.9 20.8 .244  69
2019 01 15 20  05 18 41.589   +08 38 32.33  .56169 1.4671 141.9 20.8 .261  69
2019 01 15 21  05 18 42.377   +08 39 04.75  .56181 1.4671 141.9 20.8 .279  70
2019 01 15 22  05 18 43.170   +08 39 37.20  .56193 1.4671 141.8 20.8 .296  70
2019 01 15 23  05 18 43.968   +08 40 09.66  .56204 1.4671 141.8 20.8 .314  71
2019 01 16 00  05 18 44.771   +08 40 42.14  .56216 1.4670 141.8 20.8 .332  71
2019 01 16 01  05 18 45.579   +08 41 14.65  .56228 1.4670 141.7 20.8 .351  71
2019 01 16 02  05 18 46.391   +08 41 47.17  .56240 1.4670 141.7 20.8 .370  72
2019 01 16 03  05 18 47.209   +08 42 19.71  .56251 1.4670 141.7 20.8 .389  72
2019 01 16 04  05 18 48.032   +08 42 52.27  .56263 1.4670 141.6 20.8 .409  72
2019 01 16 05  05 18 48.859   +08 43 24.85  .56275 1.4669 141.6 20.8 .428  72
2019 01 16 06  05 18 49.692   +08 43 57.45  .56287 1.4669 141.6 20.8 .448  73
2019 01 16 07  05 18 50.529   +08 44 30.07  .56299 1.4669 141.5 20.8 .469  73
2019 01 16 08  05 18 51.372   +08 45 02.70  .56311 1.4669 141.5 20.8 .490  73
2019 01 16 09  05 18 52.219   +08 45 35.36  .56323 1.4668 141.5 20.8 .511  73
2019 01 16 10  05 18 53.072   +08 46 08.03  .56335 1.4668 141.4 20.8 .532  74
2019 01 16 11  05 18 53.929   +08 46 40.73  .56347 1.4668 141.4 20.8 .554  74
2019 01 16 12  05 18 54.792   +08 47 13.44  .56359 1.4668 141.4 20.8 .576  74
2019 01 16 13  05 18 55.659   +08 47 46.17  .56371 1.4668 141.3 20.8 .598  74
2019 01 16 14  05 18 56.531   +08 48 18.92  .56383 1.4667 141.3 20.8 .620  74
2019 01 16 15  05 18 57.409   +08 48 51.68  .56395 1.4667 141.3 20.8 .643  74
2019 01 16 16  05 18 58.291   +08 49 24.47  .56407 1.4667 141.2 20.8 .666  75
2019 01 16 17  05 18 59.178   +08 49 57.28  .56419 1.4667 141.2 20.8 .690  75
2019 01 16 18  05 19 00.071   +08 50 30.10  .56431 1.4667 141.2 20.8 .714  75
2019 01 16 19  05 19 00.968   +08 51 02.94  .56443 1.4666 141.2 20.8 .738  75
2019 01 16 20  05 19 01.870   +08 51 35.80  .56455 1.4666 141.1 20.8 .762  75
2019 01 16 21  05 19 02.777   +08 52 08.68  .56467 1.4666 141.1 20.8 .787  75
2019 01 16 22  05 19 03.690   +08 52 41.57  .56479 1.4666 141.1 20.8 .812  75
2019 01 16 23  05 19 04.607   +08 53 14.48  .56492 1.4666 141.0 20.8 .837  75
2019 01 17 00  05 19 05.529   +08 53 47.41  .56504 1.4665 141.0 20.8 .863  76
2019 01 17 01  05 19 06.456   +08 54 20.36  .56516 1.4665 141.0 20.8 .889  76
2019 01 17 02  05 19 07.388   +08 54 53.33  .56528 1.4665 140.9 20.8 .915  76
2019 01 17 03  05 19 08.325   +08 55 26.31  .56541 1.4665 140.9 20.8 .941  76
2019 01 17 04  05 19 09.268   +08 55 59.32  .56553 1.4665 140.9 20.8 .968  76
2019 01 17 05  05 19 10.215   +08 56 32.34  .56565 1.4664 140.8 20.8 1.00  76
2019 01 17 06  05 19 11.167   +08 57 05.37  .56578 1.4664 140.8 20.8 1.02  76
2019 01 17 07  05 19 12.124   +08 57 38.43  .56590 1.4664 140.8 20.8 1.05  76
2019 01 17 08  05 19 13.086   +08 58 11.50  .56602 1.4664 140.7 20.8 1.08  76
2019 01 17 09  05 19 14.053   +08 58 44.59  .56615 1.4664 140.7 20.8 1.11  76
2019 01 17 10  05 19 15.025   +08 59 17.69  .56627 1.4663 140.7 20.8 1.13  76